This is the latest recevied weather packets stored in our database for station/object VE3EP-1. If no packets are shown the sender has not sent any weather packets the latest 10 day(s).
| Time | Temp. | Humidity | Pressure | Rain* | Wind** | Luminosity | Snow |
|---|---|---|---|---|---|---|---|
| 1777715529 | 3.89° C | 76% | 1016.2 hPa | 0 mm | - | - | - |
| 1777714329 | 3.89° C | 77% | 1016 hPa | 0 mm | - | - | - |
| 1777713730 | 3.89° C | 77% | 1015.8 hPa | 0 mm | - | - | - |
| 1777713128 | 3.89° C | 77% | 1015.6 hPa | 0 mm | - | - | - |
| 1777712528 | 3.89° C | 76% | 1015.6 hPa | 0 mm | - | - | - |
| 1777711928 | 4.44° C | 76% | 1015.5 hPa | 0 mm | - | - | - |
| 1777710728 | 4.44° C | 74% | 1015.2 hPa | 0 mm | - | - | - |
| 1777710129 | 4.44° C | 74% | 1015.1 hPa | 0 mm | - | - | - |
| 1777708928 | 4.44° C | 70% | 1015.3 hPa | 0 mm | - | - | - |
| 1777708328 | 4.44° C | 71% | 1015 hPa | 0 mm | - | - | - |
| 1777707731 | 5° C | 72% | 1015.1 hPa | 0 mm | - | - | - |
| 1777707128 | 5° C | 72% | 1014.9 hPa | 0 mm | - | - | - |
| 1777706529 | 5° C | 73% | 1015 hPa | 0 mm | - | - | - |
| 1777704730 | 5.56° C | 78% | 1015.2 hPa | 0 mm | - | - | - |
| 1777703528 | 5.56° C | 80% | 1015.3 hPa | 0 mm | - | - | - |
| 1777702928 | 5.56° C | 82% | 1015.4 hPa | 0 mm | - | - | - |
| 1777702328 | 4.44° C | 89% | 1015.3 hPa | 0 mm | - | - | - |
| 1777701728 | 4.44° C | 90% | 1015.4 hPa | 0 mm | - | - | - |
| 1777701128 | 4.44° C | 88% | 1015.5 hPa | 0 mm | - | - | - |
| 1777699929 | 4.44° C | 90% | 1015.3 hPa | 0 mm | - | - | - |
| 1777699328 | 4.44° C | 90% | 1015.4 hPa | 0 mm | - | - | - |
| 1777698729 | 4.44° C | 89% | 1015.2 hPa | 0 mm | - | - | - |
| 1777698128 | 4.44° C | 90% | 1015.2 hPa | 0 mm | - | - | - |
| 1777697528 | 4.44° C | 89% | 1015.5 hPa | 0 mm | - | - | - |
| 1777696328 | 4.44° C | 89% | 1015.4 hPa | 0 mm | - | - | - |
* Rain latest hour (hover to see other rain measurements)
** Current wind speed in m/s (hover to see current wind gust speed)